Tracking 32577 objects as of 14-Dec-2025
HD Live streaming from Space Station
objects crossing your sky now

ONEWEB-0547

Track ONEWEB-0547 now!
10-day predictions
ONEWEB-0547 is classified as:


NORAD ID: 56049
Int'l Code: 2023-043D
Perigee: 1,183.5 km
Apogee: 1,186.3 km
Inclination: 87.9 °
Period: 108.9 minutes
Semi major axis: 7555 km
RCS: Unknown
Launch date: March 26, 2023
Source: United Kingdom (UK)
Launch site: SRIHARIKOTA (SRI)
Your satellite tracking list
Your tracking list is empty




NASA's NSSDC Master Catalog

Two Line Element Set (TLE):
1 56049U 23043D   25347.56562136  .00000067  00000-0  13009-3 0  9990
2 56049  87.9222 280.9962 0001801  70.7600 289.3728 13.21825217133707
Source of the keplerian elements: AFSPC